This demonstration page uses our WeatherBlox Daily Observations layout. Learn more.

Left ArrowRight Arrow

Hourly Observations for January 30, 2017

Temp ( °F °C ) Dew Point ( °F °C ) Humidity (%) Winds ( mph kmh ) Pressure ( in mb ) Visibility ( mi km ) Precip ( " mm )
12:15 am 00:15 Cloudy 36 2 32 undefined 87 87 N 3 6 29.77 1008 10 16 N/A
12:35 am 00:35 Cloudy 34 1 32 undefined 93 93 N N/A 29.77 1008 10 16 N/A
12:55 am 00:55 Cloudy 36 2 30 -1 81 81 NNW 9 15 29.77 1008 10 16 N/A
1:15 am 01:15 Cloudy 36 2 30 -1 81 81 N 10 17 29.80 1009 10 16 N/A
1:35 am 01:35 Cloudy with Light Snow 34 1 30 -1 87 87 N 10 17 29.80 1009 7 11 N/A
1:55 am 01:55 Cloudy with Light Snow 32 undefined 32 undefined 100 100 NNW 8 13 29.80 1009 3 4 N/A
2:15 am 02:15 Cloudy with Light Snow 32 undefined 32 undefined 100 100 NNW 8 13 29.80 1009 3 4 N/A
2:35 am 02:35 Cloudy with Light Snow 32 undefined 32 undefined 100 100 NNW 8 13 29.80 1009 5 8 N/A
2:55 am 02:55 Cloudy with Light Snow 32 undefined 32 undefined 100 100 NW 9 15 29.80 1009 7 11 N/A
3:15 am 03:15 Cloudy 32 undefined 32 undefined 100 100 NW 7 11 29.80 1009 10 16 N/A
3:35 am 03:35 Cloudy 32 undefined 32 undefined 100 100 NW 8 13 29.80 1009 10 16 N/A
3:55 am 03:55 Cloudy 32 undefined 32 undefined 100 100 NW 7 11 29.80 1009 10 16 N/A
4:15 am 04:15 Cloudy 32 undefined 32 undefined 100 100 NW 8 13 29.80 1009 10 16 N/A
4:35 am 04:35 Cloudy 32 undefined 32 undefined 100 100 WNW 7 11 29.83 1010 10 16 N/A
4:55 am 04:55 Mostly Cloudy 32 undefined 30 -1 93 93 WNW 7 11 29.83 1010 10 16 N/A
5:15 am 05:15 Mostly Cloudy 32 undefined 30 -1 93 93 NW 7 11 29.83 1010 10 16 N/A
5:35 am 05:35 Cloudy 32 undefined 30 -1 93 93 NW 8 13 29.83 1010 10 16 N/A
5:55 am 05:55 Cloudy 32 undefined 30 -1 93 93 NW 7 11 29.83 1010 10 16 N/A
6:15 am 06:15 Cloudy 32 undefined 30 -1 93 93 NW 5 7 29.83 1010 10 16 N/A
6:35 am 06:35 Cloudy 32 undefined 30 -1 93 93 NW 6 9 29.83 1010 10 16 N/A
6:55 am 06:55 Cloudy 32 undefined 30 -1 93 93 NW 7 11 29.83 1010 10 16 N/A
7:15 am 07:15 Cloudy 32 undefined 28 -2 87 87 WNW 6 9 29.85 1011 10 16 N/A
7:35 am 07:35 Cloudy 32 undefined 28 -2 87 87 W 3 6 29.85 1011 10 16 N/A
7:55 am 07:55 Cloudy 32 undefined 28 -2 87 87 NW 9 15 29.85 1011 10 16 N/A
8:15 am 08:15 Cloudy 32 undefined 28 -2 87 87 NNW 9 15 29.88 1012 10 16 N/A
8:35 am 08:35 Cloudy with Light Snow 32 undefined 28 -2 87 87 NNW 9 15 29.88 1012 10 16 N/A
8:55 am 08:55 Cloudy 32 undefined 30 -1 93 93 NNW 9 15 29.91 1013 10 16 N/A
9:15 am 09:15 Cloudy with Light Wintry Mix 32 undefined 30 -1 93 93 NNW 6 9 29.91 1013 10 16 N/A
9:35 am 09:35 Cloudy with Light Snow 32 undefined 30 -1 93 93 NW 10 17 29.91 1013 4 6 N/A
9:55 am 09:55 Cloudy 32 undefined 28 -2 87 87 NW 13 20 29.91 1013 10 16 N/A
10:15 am 10:15 Cloudy 34 1 27 -3 75 75 NW 10 17 29.91 1013 10 16 N/A
10:35 am 10:35 Cloudy 34 1 27 -3 75 75 W 13 20 29.91 1013 10 16 N/A
10:55 am 10:55 Cloudy 34 1 25 -4 70 70 WNW 13 20 29.91 1013 10 16 N/A
11:15 am 11:15 Cloudy 36 2 23 -5 60 60 WNW 17 28 29.91 1013 10 16 N/A
11:35 am 11:35 Cloudy 36 2 23 -5 60 60 W 10 17 29.91 1013 10 16 N/A
11:55 am 11:55 Cloudy 36 2 23 -5 60 60 NW 14 22 29.91 1013 10 16 N/A
12:15 pm 12:15 Cloudy 36 2 21 -6 56 56 WNW 13 20 29.91 1013 10 16 N/A
12:35 pm 12:35 Cloudy 36 2 21 -6 56 56 WNW 16 26 29.91 1013 10 16 N/A
12:55 pm 12:55 Cloudy 36 2 21 -6 56 56 NW 16 26 29.91 1013 10 16 N/A
1:15 pm 13:15 Cloudy 34 1 25 -4 70 70 NW 23 37 29.91 1013 10 16 N/A
1:35 pm 13:35 Cloudy 36 2 23 -5 60 60 WNW 25 41 29.91 1013 10 16 N/A
1:55 pm 13:55 Cloudy 36 2 23 -5 60 60 WNW 21 33 29.91 1013 10 16 N/A
2:15 pm 14:15 Mostly Cloudy 37 3 23 -5 56 56 W 21 33 29.91 1013 10 16 N/A
2:35 pm 14:35 Mostly Cloudy 34 1 25 -4 70 70 NW 12 19 29.94 1014 10 16 N/A
2:55 pm 14:55 Mostly Cloudy 36 2 21 -6 56 56 NW 16 26 29.94 1014 10 16 N/A
3:15 pm 15:15 Partly Cloudy 37 3 14 -10 38 38 W 25 41 29.94 1014 10 16 N/A
3:35 pm 15:35 Mostly Cloudy 36 2 18 -8 48 48 WNW 22 35 29.94 1014 10 16 N/A
3:55 pm 15:55 Cloudy 36 2 19 -7 52 52 NW 20 31 29.97 1015 10 16 N/A
4:15 pm 16:15 Mostly Cloudy 34 1 18 -8 51 51 WNW 13 20 29.97 1015 10 16 N/A
4:35 pm 16:35 Sunny 34 1 16 -9 48 48 WNW 15 24 29.97 1015 10 16 N/A
4:55 pm 16:55 Sunny 34 1 16 -9 48 48 NW 10 17 29.97 1015 10 16 N/A
5:15 pm 17:15 Sunny 34 1 18 -8 51 51 WNW 13 20 30.00 1016 10 16 N/A
5:35 pm 17:35 Clear 32 undefined 18 -8 55 55 W 13 20 30.00 1016 10 16 N/A
5:55 pm 17:55 Partly Cloudy 32 undefined 18 -8 55 55 WNW 13 20 30.03 1017 10 16 N/A
6:15 pm 18:15 Partly Cloudy 32 undefined 18 -8 55 55 WNW 8 13 30.03 1017 10 16 N/A
6:35 pm 18:35 Clear 32 undefined 18 -8 55 55 WNW 9 15 30.03 1017 10 16 N/A
6:55 pm 18:55 Mostly Cloudy 32 undefined 19 -7 60 60 WNW 14 22 30.06 1018 10 16 N/A
7:15 pm 19:15 Cloudy 32 undefined 19 -7 60 60 WNW 13 20 30.06 1018 10 16 N/A
7:35 pm 19:35 Cloudy 32 undefined 19 -7 60 60 WNW 14 22 30.09 1019 10 16 N/A
7:55 pm 19:55 Mostly Cloudy 32 undefined 19 -7 60 60 NW 12 19 30.09 1019 10 16 N/A
8:15 pm 20:15 Partly Cloudy 32 undefined 19 -7 60 60 WNW 13 20 30.09 1019 10 16 N/A
8:35 pm 20:35 Mostly Cloudy 32 undefined 19 -7 60 60 WNW 14 22 30.09 1019 10 16 N/A
8:55 pm 20:55 Mostly Cloudy 32 undefined 19 -7 60 60 WNW 13 20 30.06 1018 10 16 N/A
9:15 pm 21:15 Partly Cloudy 30 -1 19 -7 64 64 SSE 5 7 30.09 1019 10 16 N/A
9:35 pm 21:35 Mostly Cloudy 32 undefined 19 -7 60 60 S 3 6 30.09 1019 10 16 N/A
9:55 pm 21:55 Partly Cloudy 28 -2 19 -7 69 69 W 5 7 30.06 1018 10 16 N/A
10:15 pm 22:15 Clear 28 -2 19 -7 69 69 N N/A 30.06 1018 10 16 N/A
10:35 pm 22:35 Clear 30 -1 19 -7 64 64 S 3 6 30.06 1018 10 16 N/A
10:55 pm 22:55 Clear 30 -1 19 -7 64 64 N N/A 30.03 1017 10 16 N/A
11:15 pm 23:15 Clear 28 -2 19 -7 69 69 N N/A 30.03 1017 10 16 N/A
11:35 pm 23:35 Clear 28 -2 19 -7 69 69 N N/A 30.03 1017 10 16 N/A
11:55 pm 23:55 Clear 27 -3 21 -6 80 80 N N/A 30.03 1017 10 16 N/A

Powered by AerisWeather